^^
Saratoga-Weather Station Historical Data
Daily Summary for July 9, 2020 Units:  English    Metric   Both
Daily Weekly Monthly Yearly Custom
  High: Low: Average:
Temperature: 67.8 °F 54 °F 59.9 °F
Dew Point: 57.6 °F 48.7 °F 52.2 °F
Humidity: 90% 56% 76%
Wind Speed: 9mph 0mph 1.8mph
Wind Gust: 10mph - -
Wind- - SW
Pressure: 30 in 29.9 in -
Precipitation: 0.05 in    
Historical Graphs
 
 
Tabular Data for July 9, 2020
Time Temperature Dew Point Pressure Wind Wind Speed Wind Gust Humidity Rainfall Rate (Hourly) solar
00:03 58.8 °F 49.5 °F 29.9 in NW 2 mph 2 mph 71% 0 in 0 W/m2
00:08 58.6 °F 49.3 °F 29.9 in WNW 0.9 mph 4 mph 71% 0 in 0 W/m2
00:13 58.6 °F 49.3 °F 29.9 in WNW 2 mph 3 mph 71% 0 in 0 W/m2
00:18 58.6 °F 49.3 °F 29.9 in NW 0.9 mph 2 mph 71% 0 in 0 W/m2
00:23 58.6 °F 49.3 °F 29.9 in Calm   2 mph 71% 0 in 0 W/m2
00:28 58.5 °F 49.1 °F 29.9 in NE 2 mph 3 mph 71% 0 in 0 W/m2
00:33 58.5 °F 49.1 °F 29.9 in North 0.9 mph 4 mph 71% 0 in 0 W/m2
00:38 58.5 °F 49.5 °F 29.9 in West 0.9 mph 4 mph 72% 0 in 0 W/m2
00:43 58.5 °F 49.5 °F 30 in NNW 2 mph 6 mph 72% 0 in 0 W/m2
00:48 58.5 °F 49.5 °F 30 in SW 2 mph 3 mph 72% 0 in 0 W/m2
00:53 58.5 °F 49.5 °F 30 in WNW 2.9 mph 5 mph 72% 0 in 0 W/m2
00:58 58.3 °F 49.3 °F 30 in WNW 2 mph 6 mph 72% 0 in 0 W/m2
01:03 58.3 °F 49.3 °F 30 in WNW 4.9 mph 5 mph 72% 0 in 0 W/m2
01:08 58.3 °F 49.3 °F 30 in WSW 6.9 mph 7 mph 72% 0 in 0 W/m2
01:13 58.3 °F 49.3 °F 30 in NW 0.9 mph 2 mph 72% 0 in 0 W/m2
01:19 58.1 °F 49.5 °F 29.9 in WSW 2 mph 7 mph 73% 0 in 0 W/m2
01:24 58.1 °F 49.5 °F 30 in West 2.9 mph 6 mph 73% 0 in 0 W/m2
01:29 58.1 °F 49.5 °F 29.9 in WNW 2 mph 7 mph 73% 0 in 0 W/m2
01:34 57.9 °F 49.3 °F 29.9 in WSW 4.9 mph 5 mph 73% 0 in 0 W/m2
01:39 57.9 °F 49.6 °F 29.9 in WNW 2.9 mph 7 mph 74% 0 in 0 W/m2
01:44 57.9 °F 49.6 °F 29.9 in North 2.9 mph 3 mph 74% 0 in 0 W/m2
01:49 57.7 °F 49.5 °F 29.9 in East 0.9 mph 3 mph 74% 0 in 0 W/m2
01:54 57.7 °F 49.5 °F 29.9 in Calm   1 mph 74% 0 in 0 W/m2
01:59 57.6 °F 49.3 °F 29.9 in ENE 0.9 mph 3 mph 74% 0 in 0 W/m2
02:04 57.6 °F 49.6 °F 29.9 in WNW 0.9 mph 5 mph 75% 0 in 0 W/m2
02:09 57.6 °F 49.6 °F 29.9 in NNW 2.9 mph 3 mph 75% 0 in 0 W/m2
02:14 57.4 °F 49.5 °F 29.9 in WSW 4 mph 7 mph 75% 0 in 0 W/m2
02:19 57.4 °F 49.5 °F 29.9 in NW 2 mph 4 mph 75% 0 in 0 W/m2
02:24 57.4 °F 49.5 °F 29.9 in NNW 4.9 mph 5 mph 75% 0 in 0 W/m2
02:29 57.4 °F 49.1 °F 29.9 in West 2 mph 5 mph 74% 0 in 0 W/m2
02:34 57.4 °F 48.7 °F 29.9 in NNW 2.9 mph 9 mph 73% 0 in 0 W/m2
02:39 57.4 °F 49.1 °F 29.9 in NW 0.9 mph 3 mph 74% 0 in 0 W/m2
02:44 57.2 °F 48.9 °F 29.9 in North 2 mph 8 mph 74% 0 in 0 W/m2
02:49 57 °F 48.7 °F 29.9 in NNW 0.9 mph 4 mph 74% 0 in 0 W/m2
02:54 57 °F 49.1 °F 29.9 in WNW 0.9 mph 2 mph 75% 0 in 0 W/m2
02:59 56.8 °F 48.9 °F 29.9 in NNW 2.9 mph 4 mph 75% 0 in 0 W/m2
03:04 56.7 °F 49.1 °F 29.9 in SW 0.9 mph 3 mph 76% 0 in 0 W/m2
03:09 56.7 °F 49.1 °F 29.9 in West 2.9 mph 3 mph 76% 0 in 0 W/m2
03:14 56.5 °F 48.9 °F 29.9 in NW 2 mph 3 mph 76% 0 in 0 W/m2
03:19 56.3 °F 49.1 °F 29.9 in NW 2 mph 3 mph 77% 0 in 0 W/m2
03:24 56.1 °F 48.9 °F 29.9 in WNW 4 mph 6 mph 77% 0 in 0 W/m2
03:29 56.1 °F 48.9 °F 29.9 in West 4 mph 4 mph 77% 0 in 0 W/m2
03:34 56.1 °F 48.9 °F 29.9 in West 4 mph 7 mph 77% 0 in 0 W/m2
03:39 56.1 °F 49.3 °F 29.9 in NW 4 mph 6 mph 78% 0 in 0 W/m2
03:44 56.1 °F 49.3 °F 29.9 in West 2 mph 3 mph 78% 0 in 0 W/m2
03:49 55.9 °F 49.1 °F 29.9 in WNW 2 mph 4 mph 78% 0 in 0 W/m2
03:54 55.9 °F 49.5 °F 29.9 in NW 0.9 mph 4 mph 79% 0 in 0 W/m2
03:59 55.9 °F 49.5 °F 29.9 in North 0.9 mph 6 mph 79% 0 in 0 W/m2
04:04 55.9 °F 49.5 °F 29.9 in Calm   5 mph 79% 0 in 0 W/m2
04:14 55.8 °F 49.3 °F 29.9 in WNW 4 mph 5 mph 79% 0 in 0 W/m2
04:19 55.8 °F 49.6 °F 29.9 in WSW 2 mph 3 mph 80% 0 in 0 W/m2
04:24 55.6 °F 49.5 °F 29.9 in Calm   8 mph 80% 0 in 0 W/m2
04:29 55.6 °F 49.5 °F 29.9 in West 4 mph 5 mph 80% 0 in 0 W/m2
04:34 55.4 °F 49.3 °F 29.9 in NNW 2 mph 4 mph 80% 0 in 0 W/m2
04:39 55.2 °F 49.5 °F 29.9 in North 0.9 mph 2 mph 81% 0 in 0 W/m2
04:44 55 °F 49.3 °F 29.9 in NW 2 mph 4 mph 81% 0 in 0 W/m2
04:49 55 °F 49.6 °F 29.9 in NW 0.9 mph 2 mph 82% 0 in 0 W/m2
04:54 54.9 °F 49.5 °F 29.9 in Calm     82% 0 in 0 W/m2
04:59 54.7 °F 49.3 °F 29.9 in WNW 0.9 mph 3 mph 82% 0 in 0 W/m2
05:04 54.5 °F 49.1 °F 29.9 in WNW 0.9 mph 4 mph 82% 0 in 0 W/m2
05:09 54.3 °F 49.3 °F 29.9 in NNW 2 mph 5 mph 83% 0 in 0 W/m2
05:14 54.3 °F 49.3 °F 29.9 in North 0.9 mph 2 mph 83% 0 in 0 W/m2
05:19 54.3 °F 49.3 °F 29.9 in NW 0.9 mph 2 mph 83% 0 in 0 W/m2
05:24 54.3 °F 49.6 °F 29.9 in North 2 mph 3 mph 84% 0 in 0 W/m2
05:29 54.3 °F 49.3 °F 29.9 in WNW 0.9 mph 3 mph 83% 0 in 0 W/m2
05:34 54.1 °F 49.5 °F 29.9 in WNW 0.9 mph 3 mph 84% 0 in 0 W/m2
05:39 54.1 °F 49.5 °F 29.9 in NW 2 mph 4 mph 84% 0 in 5 W/m2
05:44 54 °F 49.3 °F 29.9 in WNW 2 mph 6 mph 84% 0 in 5 W/m2
05:49 54 °F 49.6 °F 29.9 in West 2 mph 2 mph 85% 0 in 5 W/m2
05:54 54 °F 49.6 °F 29.9 in NNW 0.9 mph 2 mph 85% 0 in 7 W/m2
05:59 54 °F 49.6 °F 29.9 in WNW 2.9 mph 3 mph 85% 0 in 9 W/m2
06:04 54 °F 49.6 °F 29.9 in SW 2 mph 7 mph 85% 0 in 14 W/m2
06:09 54.1 °F 49.8 °F 29.9 in Calm   1 mph 85% 0 in 19 W/m2
06:14 54.1 °F 49.8 °F 29.9 in WNW 0.9 mph 7 mph 85% 0 in 21 W/m2
06:24 54.3 °F 49.6 °F 29.9 in West 2 mph 3 mph 84% 0 in 32 W/m2
06:29 54.3 °F 49.6 °F 29.9 in WNW 4.9 mph 6 mph 84% 0 in 39 W/m2
06:34 54.5 °F 49.8 °F 29.9 in WNW 0.9 mph 4 mph 84% 0 in 51 W/m2
06:39 54.5 °F 49.8 °F 29.9 in NW 2.9 mph 3 mph 84% 0 in 58 W/m2
06:44 54.7 °F 50 °F 29.9 in West 2.9 mph 5 mph 84% 0 in 60 W/m2
06:50 54.7 °F 50 °F 30 in WNW 0.9 mph 3 mph 84% 0 in 53 W/m2
06:55 54.7 °F 50 °F 30 in WNW 2 mph 2 mph 84% 0 in 51 W/m2
07:00 54.7 °F 50 °F 30 in NW 2 mph 3 mph 84% 0 in 63 W/m2
07:05 54.9 °F 50.2 °F 30 in NW 2 mph 5 mph 84% 0 in 76 W/m2
07:10 55 °F 50.4 °F 30 in NNE 2.9 mph 4 mph 84% 0 in 97 W/m2
07:15 55.2 °F 50.5 °F 30 in WNW 2 mph 5 mph 84% 0 in 114 W/m2
07:20 55.4 °F 50.4 °F 30 in NNW 0.9 mph 6 mph 83% 0 in 123 W/m2
07:25 55.6 °F 50.5 °F 30 in SSE 4.9 mph 5 mph 83% 0 in 123 W/m2
07:30 55.8 °F 50.7 °F 30 in WSW 4 mph 4 mph 83% 0 in 120 W/m2
07:35 56.1 °F 50.7 °F 30 in West 2.9 mph 3 mph 82% 0 in 142 W/m2
07:40 56.5 °F 50.7 °F 30 in NNW 4 mph 4 mph 81% 0 in 204 W/m2
07:45 56.5 °F 50.7 °F 30 in NNE 0.9 mph 3 mph 81% 0 in 176 W/m2
07:50 56.5 °F 50.7 °F 30 in East 0.9 mph 4 mph 81% 0 in 125 W/m2
07:55 56.7 °F 50.9 °F 30 in West 0.9 mph 3 mph 81% 0 in 104 W/m2
08:00 56.7 °F 50.9 °F 30 in ENE 2 mph 2 mph 81% 0 in 118 W/m2
08:05 56.5 °F 50.7 °F 30 in Calm   4 mph 81% 0 in 121 W/m2
08:10 56.7 °F 51.3 °F 30 in NW 2 mph 3 mph 82% 0 in 158 W/m2
08:15 56.7 °F 51.3 °F 30 in WNW 0.9 mph 4 mph 82% 0 in 162 W/m2
08:20 56.8 °F 51.4 °F 30 in Calm   9 mph 82% 0 in 172 W/m2
08:25 56.8 °F 51.4 °F 30 in North 2 mph 6 mph 82% 0 in 169 W/m2
08:30 56.8 °F 51.1 °F 30 in ENE 2 mph 9 mph 81% 0 in 183 W/m2
08:35 57.2 °F 51.4 °F 30 in WNW 0.9 mph 4 mph 81% 0 in 330 W/m2
08:45 57.9 °F 51.8 °F 30 in NNW 6 mph 7 mph 80% 0 in 338 W/m2
08:51 58.3 °F 52.2 °F 30 in WNW 2.9 mph 4 mph 80% 0 in 274 W/m2
08:56 58.5 °F 52 °F 30 in SSW 0.9 mph 8 mph 79% 0 in 272 W/m2
09:01 58.6 °F 52.2 °F 30 in NNE 2 mph 5 mph 79% 0 in 575 W/m2
09:06 59.2 °F 52.3 °F 30 in ESE 0.9 mph 8 mph 78% 0 in 526 W/m2
09:11 59.5 °F 52.3 °F 30 in East 4 mph 7 mph 77% 0 in 325 W/m2
09:16 59.5 °F 52 °F 30 in East 0.9 mph 1 mph 76% 0 in 234 W/m2
09:21 59.4 °F 52.2 °F 30 in ENE 4 mph 7 mph 77% 0 in 232 W/m2
09:26 59.4 °F 52.2 °F 30 in East 0.9 mph 7 mph 77% 0 in 213 W/m2
09:31 59.2 °F 52 °F 30 in East 2 mph 5 mph 77% 0 in 207 W/m2
09:36 59.2 °F 52.3 °F 30 in WNW 0.9 mph 4 mph 78% 0 in 232 W/m2
09:41 59.2 °F 52.3 °F 30 in SW 0.9 mph 6 mph 78% 0 in 325 W/m2
09:46 59.2 °F 52.3 °F 30 in North 2 mph 4 mph 78% 0 in 403 W/m2
09:51 59.4 °F 52.5 °F 30 in NE 6 mph 6 mph 78% 0 in 432 W/m2
09:56 59.5 °F 52.3 °F 30 in NNW 2.9 mph 5 mph 77% 0 in 311 W/m2
10:01 59.5 °F 52.3 °F 30 in NNE 4 mph 6 mph 77% 0 in 278 W/m2
10:06 59.5 °F 52.3 °F 30 in NW 2.9 mph 4 mph 77% 0 in 399 W/m2
10:11 60.1 °F 53.2 °F 30 in SW 2 mph 6 mph 78% 0 in 381 W/m2
10:16 60.6 °F 53.1 °F 30 in East 0.9 mph 4 mph 76% 0 in 596 W/m2
10:21 61 °F 53.4 °F 30 in NNE 0.9 mph 4 mph 76% 0 in 371 W/m2
10:26 61 °F 53.1 °F 30 in NNE 4 mph 6 mph 75% 0 in 373 W/m2
10:31 60.8 °F 53.2 °F 30 in Calm   4 mph 76% 0 in 373 W/m2
10:36 61.2 °F 53.2 °F 30 in WNW 2 mph 5 mph 75% 0 in 793 W/m2
10:41 61.5 °F 53.6 °F 30 in SW 2 mph 4 mph 75% 0 in 475 W/m2
10:46 62.2 °F 53.8 °F 30 in West 2 mph 3 mph 74% 0 in 455 W/m2
10:51 62.8 °F 54 °F 30 in NW 2.9 mph 8 mph 73% 0 in 761 W/m2
10:56 63.1 °F 54 °F 30 in WNW 4 mph 4 mph 72% 0 in 926 W/m2
11:01 63.7 °F 54.1 °F 30 in SSE 2.9 mph 5 mph 71% 0 in 761 W/m2
11:06 64 °F 54.1 °F 30 in SW 2 mph 3 mph 70% 0 in 352 W/m2
11:16 63.7 °F 54.1 °F 30 in East 2 mph 4 mph 71% 0 in 234 W/m2
11:21 63.7 °F 53.8 °F 30 in NNE 2 mph 6 mph 70% 0 in 257 W/m2
11:26 63.3 °F 53.4 °F 30 in NNE 2 mph 7 mph 70% 0 in 318 W/m2
11:31 63.3 °F 53.1 °F 30 in ENE 2 mph 4 mph 69% 0 in 526 W/m2
11:36 63.7 °F 53.8 °F 30 in NE 2.9 mph 4 mph 70% 0 in 552 W/m2
11:41 63.9 °F 54 °F 30 in NNW 2.9 mph 4 mph 70% 0 in 805 W/m2
11:46 64.4 °F 54 °F 30 in WNW 0.9 mph 5 mph 69% 0 in 889 W/m2
11:51 64.9 °F 54.1 °F 30 in WNW 0.9 mph 6 mph 68% 0 in 816 W/m2
11:56 64.6 °F 53.4 °F 30 in NNW 2.9 mph 9 mph 67% 0 in 388 W/m2
12:01 63.7 °F 52.9 °F 30 in NE 0.9 mph 3 mph 68% 0 in 345 W/m2
12:11 63.3 °F 53.4 °F 30 in ESE 2.9 mph 5 mph 70% 0 in 432 W/m2
12:16 63.3 °F 53.1 °F 30 in WNW 2 mph 4 mph 69% 0 in 360 W/m2
12:21 63.3 °F 53.4 °F 30 in NW 0.9 mph 2 mph 70% 0 in 320 W/m2
12:26 63.3 °F 53.4 °F 30 in Calm   3 mph 70% 0 in 313 W/m2
12:31 63.3 °F 53.4 °F 30 in NNW 2 mph 3 mph 70% 0 in 323 W/m2
12:36 63.7 °F 53.8 °F 30 in WNW 2 mph 4 mph 70% 0 in 315 W/m2
12:41 63.7 °F 52.9 °F 30 in Calm   5 mph 68% 0 in 302 W/m2
12:46 63.7 °F 53.2 °F 30 in ENE 2 mph 3 mph 69% 0 in 318 W/m2
12:51 64 °F 53.6 °F 30 in ENE 2 mph 5 mph 69% 0 in 438 W/m2
12:56 64.8 °F 54 °F 30 in NNW 0.9 mph 4 mph 68% 0 in 608 W/m2
13:01 65.1 °F 54 °F 30 in NE 2 mph 4 mph 67% 0 in 599 W/m2
13:06 65.8 °F 53.2 °F 30 in East 2.9 mph 4 mph 64% 0 in 519 W/m2
13:12 65.8 °F 52.5 °F 30 in WSW 2.9 mph 3 mph 62% 0 in 661 W/m2
13:17 66.2 °F 53.2 °F 30 in East 4 mph 9 mph 63% 0 in 540 W/m2
13:22 66.6 °F 53.6 °F 30 in South 2.9 mph 6 mph 63% 0 in 499 W/m2
13:27 66.6 °F 52.7 °F 30 in ESE 2 mph 9 mph 61% 0 in 445 W/m2
13:32 66.6 °F 53.1 °F 30 in ESE 6 mph 7 mph 62% 0 in 364 W/m2
13:37 66.2 °F 52.9 °F 30 in West 8.1 mph 10 mph 62% 0 in 306 W/m2
13:42 65.8 °F 52.9 °F 30 in WNW 2 mph 6 mph 63% 0 in 279 W/m2
13:47 65.8 °F 52.5 °F 30 in ENE 2 mph 8 mph 62% 0 in 258 W/m2
13:52 66 °F 52.7 °F 30 in SE 0.9 mph 4 mph 62% 0 in 253 W/m2
13:57 66 °F 52.7 °F 30 in ESE 0.9 mph 3 mph 62% 0 in 243 W/m2
14:02 65.8 °F 52 °F 30 in WNW 4 mph 4 mph 61% 0 in 214 W/m2
14:07 65.7 °F 51.4 °F 30 in WNW 0.9 mph 4 mph 60% 0 in 209 W/m2
14:12 65.8 °F 52.5 °F 30 in Calm   2 mph 62% 0 in 207 W/m2
14:17 65.8 °F 52.5 °F 30 in WNW 0.9 mph 2 mph 62% 0 in 214 W/m2
14:22 66 °F 52.7 °F 30 in NE 0.9 mph 4 mph 62% 0 in 241 W/m2
14:27 66 °F 52.2 °F 30 in ENE 2 mph 4 mph 61% 0 in 320 W/m2
14:32 66.2 °F 52.3 °F 29.9 in NW 2 mph 6 mph 61% 0 in 350 W/m2
14:37 66.4 °F 52.5 °F 30 in NNE 0.9 mph 3 mph 61% 0 in 362 W/m2
14:42 66.7 °F 52.9 °F 29.9 in Calm   7 mph 61% 0 in 380 W/m2
14:47 66.9 °F 53.1 °F 29.9 in WNW 2 mph 2 mph 61% 0 in 371 W/m2
14:52 67.1 °F 51.8 °F 29.9 in SW 2 mph 5 mph 58% 0 in 316 W/m2
14:57 66.9 °F 50.7 °F 29.9 in ESE 2 mph 2 mph 56% 0 in 304 W/m2
15:02 66.7 °F 51.1 °F 29.9 in NNE 0.9 mph 6 mph 57% 0 in 315 W/m2
15:07 66.9 °F 51.3 °F 29.9 in ENE 0.9 mph 3 mph 57% 0 in 339 W/m2
15:12 67.3 °F 52 °F 29.9 in East 0.9 mph 2 mph 58% 0 in 343 W/m2
15:17 67.5 °F 51.6 °F 29.9 in ENE 0.9 mph 7 mph 57% 0 in 325 W/m2
15:22 67.6 °F 52.9 °F 29.9 in NW 2 mph 6 mph 59% 0 in 327 W/m2
15:27 67.8 °F 52 °F 29.9 in North 2 mph 4 mph 57% 0 in 322 W/m2
15:32 67.8 °F 52 °F 29.9 in NNE 0.9 mph 6 mph 57% 0 in 350 W/m2
15:37 67.6 °F 51.4 °F 29.9 in NNW 2.9 mph 4 mph 56% 0 in 278 W/m2
15:42 67.6 °F 51.4 °F 29.9 in NE 0.9 mph 2 mph 56% 0 in 109 W/m2
15:47 67.1 °F 51.4 °F 30 in ESE 2.9 mph 7 mph 57% 0 in 37 W/m2
15:52 65.8 °F 52 °F 30 in ESE 2.9 mph 5 mph 61% 0 in 33 W/m2
15:57 64.2 °F 54.3 °F 30 in NE 2.9 mph 10 mph 70% 0 in 47 W/m2
16:02 62.2 °F 53.8 °F 30 in East 2 mph 4 mph 74% 0.02 in 70 W/m2
16:07 61.2 °F 54.7 °F 30 in ESE 0.9 mph 3 mph 79% 0.03 in 84 W/m2
16:12 60.1 °F 54.3 °F 30 in SE 2.9 mph 3 mph 81% 0.04 in 107 W/m2
16:17 59.4 °F 54.1 °F 30 in East 2 mph 6 mph 83% 0.04 in 130 W/m2
16:22 59 °F 54.5 °F 30 in Calm   3 mph 85% 0.04 in 151 W/m2
16:27 59 °F 55.2 °F 30 in SW 0.9 mph 6 mph 87% 0.04 in 162 W/m2
16:32 58.8 °F 55 °F 30 in SE 2 mph 3 mph 87% 0.04 in 171 W/m2
16:37 59.2 °F 55.4 °F 30 in Calm   4 mph 87% 0.05 in 181 W/m2
16:42 59.2 °F 55.4 °F 30 in ENE 0.9 mph 1 mph 87% 0.05 in 200 W/m2
16:47 59.4 °F 55.2 °F 30 in Calm   3 mph 86% 0.05 in 229 W/m2
16:57 59.7 °F 55.6 °F 30 in North 0.9 mph 1 mph 86% 0.05 in 155 W/m2
17:02 60.1 °F 55.6 °F 30 in East 2 mph 2 mph 85% 0.03 in 137 W/m2
17:07 60.4 °F 56.5 °F 30 in Calm     87% 0.02 in 135 W/m2
17:12 60.6 °F 57 °F 30 in Calm   2 mph 88% 0.01 in 132 W/m2
17:17 60.3 °F 56.3 °F 30 in SW 0.9 mph 2 mph 87% 0.01 in 137 W/m2
17:23 59.7 °F 55.8 °F 29.9 in SW 2 mph 2 mph 87% 0.01 in 153 W/m2
17:28 59.5 °F 55.9 °F 29.9 in SW 0.9 mph 2 mph 88% 0.01 in 179 W/m2
17:33 59.5 °F 56.3 °F 29.9 in SW 0.9 mph 1 mph 89% 0 in 188 W/m2
17:38 59.5 °F 56.3 °F 29.9 in Calm     89% 0 in 193 W/m2
17:43 60.1 °F 56.8 °F 29.9 in Calm     89% 0 in 202 W/m2
17:48 60.4 °F 57.6 °F 29.9 in Calm     90% 0 in 204 W/m2
17:53 60.6 °F 57 °F 29.9 in WSW 2 mph 2 mph 88% 0 in 188 W/m2
17:58 61.2 °F 56.7 °F 30 in Calm   1 mph 85% 0 in 185 W/m2
18:03 61.3 °F 57.2 °F 29.9 in Calm   1 mph 86% 0 in 179 W/m2
18:08 61.9 °F 57.6 °F 29.9 in Calm     86% 0 in 207 W/m2
18:13 61.9 °F 57 °F 29.9 in Calm   2 mph 84% 0 in 230 W/m2
18:18 62.2 °F 55.9 °F 29.9 in Calm   1 mph 80% 0 in 285 W/m2
18:23 62.4 °F 55.8 °F 29.9 in Calm   1 mph 79% 0 in 244 W/m2
18:28 62.8 °F 55.8 °F 29.9 in WNW 0.9 mph 2 mph 78% 0 in 200 W/m2
18:33 62.6 °F 55.6 °F 30 in WSW 2 mph 2 mph 78% 0 in 214 W/m2
18:38 62.4 °F 55 °F 30 in Calm   2 mph 77% 0 in 229 W/m2
18:43 62.8 °F 56.5 °F 30 in WSW 0.9 mph 1 mph 80% 0 in 230 W/m2
18:49 62.8 °F 54 °F 30 in Calm   1 mph 73% 0 in 214 W/m2
18:54 63.1 °F 55.8 °F 29.9 in NNW 0.9 mph 3 mph 77% 0 in 232 W/m2
18:59 63.3 °F 54.1 °F 29.9 in NW 0.9 mph 1 mph 72% 0 in 127 W/m2
19:04 63.7 °F 55.6 °F 29.9 in Calm   1 mph 75% 0 in 93 W/m2
19:09 63.5 °F 56.1 °F 29.9 in West 0.9 mph 2 mph 77% 0 in 97 W/m2
19:14 63.1 °F 55.8 °F 29.9 in Calm   1 mph 77% 0 in 111 W/m2
19:19 63 °F 57.4 °F 29.9 in Calm   1 mph 82% 0 in 116 W/m2
19:24 62.8 °F 57.2 °F 29.9 in SE 2 mph 3 mph 82% 0 in 100 W/m2
19:29 62.8 °F 57.6 °F 29.9 in Calm   1 mph 83% 0 in 70 W/m2
19:34 62.4 °F 57.2 °F 29.9 in SE 0.9 mph 2 mph 83% 0 in 69 W/m2
19:39 62.1 °F 56.8 °F 30 in Calm   1 mph 83% 0 in 65 W/m2
19:44 61.9 °F 57 °F 30 in Calm   2 mph 84% 0 in 42 W/m2
19:49 61.5 °F 55.6 °F 30 in NW 2.9 mph 3 mph 81% 0 in 21 W/m2
19:54 61.7 °F 54.9 °F 30 in SW 0.9 mph 3 mph 78% 0 in 12 W/m2
19:59 62.1 °F 54.7 °F 30 in NNW 0.9 mph 5 mph 77% 0 in 12 W/m2
20:04 62.1 °F 54.7 °F 30 in SSW 2 mph 2 mph 77% 0 in 16 W/m2
20:09 62.1 °F 55 °F 30 in North 0.9 mph 4 mph 78% 0 in 25 W/m2
20:14 62.1 °F 55 °F 30 in NNE 0.9 mph 3 mph 78% 0 in 33 W/m2
20:19 61.9 °F 53.1 °F 30 in North 0.9 mph 3 mph 73% 0 in 33 W/m2
20:24 61.7 °F 52.2 °F 30 in SSE 0.9 mph 3 mph 71% 0 in 30 W/m2
20:29 61.5 °F 52 °F 30 in NNE 2 mph 5 mph 71% 0 in 26 W/m2
20:34 61.3 °F 52.2 °F 30 in NW 4.9 mph 8 mph 72% 0 in 25 W/m2
20:39 61 °F 52 °F 30 in NW 4 mph 9 mph 72% 0 in 21 W/m2
20:44 60.8 °F 52.2 °F 30 in WSW 2.9 mph 4 mph 73% 0 in 18 W/m2
20:49 60.4 °F 51.8 °F 30 in WNW 9 mph 9 mph 73% 0 in 12 W/m2
20:54 60.3 °F 52 °F 30 in NE 0.9 mph 5 mph 74% 0 in 9 W/m2
20:59 60.3 °F 52.3 °F 30 in NE 0.9 mph 6 mph 75% 0 in 7 W/m2
21:04 60.1 °F 52.2 °F 30 in North 2.9 mph 6 mph 75% 0 in 5 W/m2
21:09 59.7 °F 52.2 °F 30 in NNW 2 mph 6 mph 76% 0 in 5 W/m2
21:14 59.5 °F 52.3 °F 30 in West 6 mph 9 mph 77% 0 in 0 W/m2
21:19 59.4 °F 52.2 °F 30 in NNW 2 mph 5 mph 77% 0 in 0 W/m2
21:24 59.2 °F 52.3 °F 30 in NW 2.9 mph 6 mph 78% 0 in 0 W/m2
21:29 59 °F 52.5 °F 30 in WNW 2 mph 2 mph 79% 0 in 0 W/m2
21:34 58.8 °F 52.7 °F 30 in NW 2.9 mph 6 mph 80% 0 in 0 W/m2
21:39 58.6 °F 52.9 °F 30 in West 0.9 mph 6 mph 81% 0 in 0 W/m2
21:44 58.6 °F 52.9 °F 30 in West 2.9 mph 4 mph 81% 0 in 0 W/m2
21:49 58.6 °F 52.9 °F 30 in NNW 4 mph 4 mph 81% 0 in 0 W/m2
21:54 58.5 °F 53.1 °F 30 in WNW 0.9 mph 4 mph 82% 0 in 0 W/m2
21:59 58.5 °F 53.1 °F 30 in NW 4 mph 7 mph 82% 0 in 0 W/m2
22:04 58.5 °F 53.1 °F 30 in WNW 0.9 mph 4 mph 82% 0 in 0 W/m2
22:09 58.5 °F 53.1 °F 30 in WNW 0.9 mph 4 mph 82% 0 in 0 W/m2
22:14 58.5 °F 52.7 °F 30 in West 2.9 mph 4 mph 81% 0 in 0 W/m2
22:19 58.6 °F 52.9 °F 30 in WNW 0.9 mph 6 mph 81% 0 in 0 W/m2
22:25 58.6 °F 52.9 °F 30 in Calm   3 mph 81% 0 in 0 W/m2
22:30 58.6 °F 52.5 °F 30 in North 4 mph 4 mph 80% 0 in 0 W/m2
22:40 58.6 °F 52.5 °F 30 in NW 2.9 mph 5 mph 80% 0 in 0 W/m2
22:45 58.6 °F 52.5 °F 30 in NNW 2 mph 4 mph 80% 0 in 0 W/m2
22:50 58.8 °F 52.7 °F 30 in WNW 0.9 mph 4 mph 80% 0 in 0 W/m2
22:55 58.6 °F 52.5 °F 30 in WNW 4 mph 8 mph 80% 0 in 0 W/m2
23:00 58.6 °F 52.5 °F 30 in North 2 mph 8 mph 80% 0 in 0 W/m2
23:05 58.6 °F 52.5 °F 30 in NNW 2 mph 8 mph 80% 0 in 0 W/m2
23:10 58.6 °F 52.5 °F 30 in NW 0.9 mph 4 mph 80% 0 in 0 W/m2
23:15 58.8 °F 52.7 °F 30 in North 0.9 mph 8 mph 80% 0 in 0 W/m2
23:20 58.8 °F 52.3 °F 30 in North 0.9 mph 3 mph 79% 0 in 0 W/m2
23:25 58.8 °F 52.7 °F 30 in West 0.9 mph 3 mph 80% 0 in 0 W/m2
23:30 58.8 °F 52.3 °F 30 in NE 4 mph 5 mph 79% 0 in 0 W/m2
23:35 58.8 °F 52.3 °F 30 in ENE 2 mph 3 mph 79% 0 in 0 W/m2
23:40 58.8 °F 52.3 °F 30 in NNW 2 mph 3 mph 79% 0 in 0 W/m2
23:45 58.6 °F 52.2 °F 30 in Calm   2 mph 79% 0 in 0 W/m2
23:50 58.6 °F 52.5 °F 30 in Calm   2 mph 80% 0 in 0 W/m2
23:55 58.5 °F 52.3 °F 30 in Calm   1 mph 80% 0 in 0 W/m2
Juneau County Weather
Compliments of Weather Underground - 4 mb